Boscobel, WI

2:12 AM CST on December 03, 2016 (GMT -0600)
Boscobel

Weather History for KOVS - March, 2014

Change the Weather History Date:

Wednesday, March 26, 2014

  Actual Average (KPDC) Record (KPDC)
Temperature  
Mean Temperature 24 °F -  
Max Temperature 44 °F 52 °F 82 °F (2007)
Min Temperature 7 °F 29 °F 5 °F (1955)
Degree Days  
Heating Degree Days 40    
Moisture  
Dew Point 12 °F    
Average Humidity 56    
Maximum Humidity 84    
Minimum Humidity 35    
Precipitation  
Precipitation 0.00 in - - ()
Sea Level Pressure  
Sea Level Pressure 30.12 in    
Wind  
Wind Speed 4 mph (South)    
Max Wind Speed 16 mph    
Max Gust Speed 26 mph    
Visibility 10 miles    
Events      
Averages and records for this station are not official NWS values.
T = Trace of Precipitation, MM = Missing Value Source: NWS Daily Summary

Daily Weather History Graph

Daily Weather History Graph

Search for Another Location

Airport or City:

Trip Planner

Search our weather history database for the weather conditions in past years. The results will help you decide how hot, cold, wet, or windy it might be!

Date:

Astronomy

Mar. 26, 2014 Rise Set
Actual Time 6:55 AM CDT 7:22 PM CDT
Civil Twilight 6:26 AM CDT 7:50 PM CDT
Nautical Twilight 5:53 AM CDT 8:24 PM CDT
Astronomical Twilight 5:18 AM CDT 8:59 PM CDT
Moon 4:10 AM CDT (3/26) 2:54 PM CDT (3/26)
Length of Visible Light 13h 23m
Length of Day
12h 26m
Waning Crescent, 21% of the Moon is Illuminated
Mar 26
Waning Crescent
Mar 30
New
Apr 7
First Quarter
Apr 15
Full
Apr 22
Last Quarter

Hourly Weather History & Observations

Time (CDT) Temp. Windchill Dew Point Humidity Pressure Visibility Wind Dir Wind Speed Gust Speed Precip Events Conditions
12:53 AM 12.0 °F - 6.1 °F 77% 30.28 in 10.0 mi Calm Calm - N/A   Clear
1:53 AM 10.9 °F - 6.1 °F 81% 30.28 in 7.0 mi Calm Calm - N/A   Clear
2:53 AM 10.0 °F - 6.1 °F 84% 30.28 in 10.0 mi Calm Calm - N/A   Clear
3:53 AM 10.0 °F - 5.0 °F 80% 30.28 in 9.0 mi Calm Calm - N/A   Clear
4:53 AM 8.1 °F - 3.9 °F 83% 30.29 in 10.0 mi Calm Calm - N/A   Clear
5:53 AM 8.1 °F - 3.9 °F 83% 30.28 in 10.0 mi Calm Calm - N/A   Clear
6:53 AM 7.0 °F - 3.0 °F 84% 30.29 in 10.0 mi Calm Calm - N/A   Clear
7:53 AM 14.0 °F - 9.0 °F 80% 30.30 in 10.0 mi Calm Calm - N/A   Clear
8:53 AM 21.0 °F - 14.0 °F 74% 30.27 in 10.0 mi Calm Calm - N/A   Overcast
9:53 AM 27.0 °F 17.3 °F 10.9 °F 51% 30.25 in 10.0 mi South 10.4 mph - N/A   Clear
10:53 AM 30.0 °F 24.1 °F 12.0 °F 47% 30.24 in 10.0 mi South 5.8 mph - N/A   Overcast
11:53 AM 32.0 °F 24.8 °F 12.0 °F 44% 30.21 in 10.0 mi SSE 8.1 mph - N/A   Mostly Cloudy
12:53 PM 33.1 °F 24.4 °F 12.0 °F 42% 30.18 in 10.0 mi SSW 11.5 mph 19.6 mph N/A   Overcast
1:53 PM 36.0 °F 28.5 °F 12.9 °F 39% 30.13 in 10.0 mi South 10.4 mph - N/A   Overcast
2:53 PM 39.9 °F 33.9 °F 14.0 °F 35% 30.07 in 10.0 mi SSE 9.2 mph 17.3 mph N/A   Overcast
3:53 PM 39.9 °F 34.5 °F 14.0 °F 35% 30.02 in 10.0 mi SSE 8.1 mph 19.6 mph N/A   Overcast
4:53 PM 39.9 °F 34.5 °F 16.0 °F 38% 29.98 in 10.0 mi SSE 8.1 mph 21.9 mph N/A   Scattered Clouds
5:53 PM 39.9 °F - 16.0 °F 38% 29.96 in 10.0 mi North - - N/A   Overcast
6:53 PM 39.0 °F 33.4 °F 16.0 °F 39% 29.96 in 10.0 mi South 8.1 mph 17.3 mph N/A   Overcast
7:53 PM 39.0 °F 34.8 °F 18.0 °F 43% 29.93 in 10.0 mi Variable 5.8 mph - 0.00 in   Overcast
8:53 PM 39.0 °F 33.4 °F 19.0 °F 45% 29.90 in 10.0 mi South 8.1 mph 18.4 mph N/A   Overcast
9:53 PM 39.9 °F 34.5 °F 19.0 °F 43% 29.87 in 10.0 mi SSW 8.1 mph 17.3 mph N/A   Overcast
10:53 PM 42.1 °F 34.5 °F 19.0 °F 40% 29.83 in 10.0 mi South 15.0 mph 25.3 mph N/A   Overcast
11:53 PM 43.0 °F 35.4 °F 19.0 °F 38% 29.82 in 10.0 mi South 16.1 mph 26.5 mph N/A   Overcast